• în Republica Moldova
  • Lista ţărilor
  • Pe 7 zile
  • Temperatura apei
  • Hartă satelitară
  • Meteo pe hartă
  • Widget-uri
  • user-avatar
    Intrare

    Meteo pe oră la Melbourne

    Astăzi, 10 Decembrie, Luni

    Timp Temperatura Precipitaţii Vânt Presiune Umiditate
    00:00 +15°C° 0 mm 1 m/s 760 mmHg 86%
    01:00 +15°C° 0 mm 1 m/s 760 mmHg 87%
    02:00 +15°C° 0 mm 2 m/s 760 mmHg 89%
    03:00 +14°C° 0 mm 2 m/s 760 mmHg 91%
    04:00 +14°C° 0 mm 1 m/s 760 mmHg 93%
    05:00 +15°C° 0 mm 2 m/s 761 mmHg 91%
    06:00 +16°C° 0 mm 2 m/s 761 mmHg 89%
    07:00 +16°C° 0 mm 2 m/s 762 mmHg 87%
    08:00 +18°C° 0 mm 2 m/s 762 mmHg 79%
    09:00 +19°C° 0 mm 3 m/s 762 mmHg 70%
    10:00 +21°C° 0 mm 3 m/s 762 mmHg 58%
    11:00 +22°C° 0 mm 3 m/s 762 mmHg 54%
    12:00 +23°C° 0 mm 4 m/s 762 mmHg 49%
    13:00 +25°C° 0 mm 4 m/s 762 mmHg 45%
    14:00 +23°C° 0 mm 4 m/s 762 mmHg 44%
    15:00 +23°C° 0 mm 4 m/s 761 mmHg 43%
    16:00 +22°C° 0 mm 4 m/s 762 mmHg 45%
    17:00 +21°C° 0 mm 3 m/s 762 mmHg 50%
    18:00 +20°C° 0 mm 3 m/s 762 mmHg 55%
    19:00 +18°C° 0 mm 3 m/s 762 mmHg 61%
    20:00 +17°C° 0 mm 3 m/s 762 mmHg 69%
    21:00 +16°C° 0 mm 2 m/s 763 mmHg 77%
    22:00 +14°C° 0 mm 2 m/s 763 mmHg 88%
    23:00 +14°C° 0 mm 2 m/s 763 mmHg 90%

    Mâine, 11 Decembrie, Marţi

    Timp Temperatura Precipitaţii Vânt Presiune Umiditate
    00:00 +14°C° 0 mm 2 m/s 763 mmHg 92%
    01:00 +13°C° 0 mm 2 m/s 762 mmHg 94%
    02:00 +13°C° 0 mm 2 m/s 762 mmHg 94%
    03:00 +13°C° 0 mm 2 m/s 762 mmHg 93%
    04:00 +13°C° 0 mm 2 m/s 762 mmHg 93%
    05:00 +14°C° 0 mm 2 m/s 762 mmHg 88%
    06:00 +15°C° 0 mm 2 m/s 762 mmHg 83%
    07:00 +16°C° 0 mm 2 m/s 762 mmHg 78%
    08:00 +18°C° 0 mm 2 m/s 762 mmHg 67%
    09:00 +21°C° 0 mm 2 m/s 761 mmHg 57%
    10:00 +24°C° 0 mm 2 m/s 761 mmHg 47%
    11:00 +25°C° 0 mm 2 m/s 761 mmHg 43%
    12:00 +27°C° 0 mm 2 m/s 760 mmHg 39%
    13:00 +28°C° 0 mm 3 m/s 760 mmHg 36%
    14:00 +28°C° 0 mm 3 m/s 759 mmHg 37%
    15:00 +28°C° 0 mm 4 m/s 759 mmHg 38%
    16:00 +28°C° 0 mm 4 m/s 758 mmHg 39%
    17:00 +26°C° 0 mm 4 m/s 758 mmHg 46%
    18:00 +24°C° 0 mm 3 m/s 758 mmHg 53%
    19:00 +21°C° 0 mm 3 m/s 758 mmHg 60%
    20:00 +20°C° 0 mm 2 m/s 758 mmHg 64%
    21:00 +19°C° 0 mm 2 m/s 758 mmHg 69%
    22:00 +18°C° 0 mm 1 m/s 758 mmHg 73%
    23:00 +18°C° 0 mm 1 m/s 758 mmHg 75%

    Poimâine, 12 Decembrie, Miercuri

    Timp Temperatura Precipitaţii Vânt Presiune Umiditate
    00:00 +18°C° 0 mm 1 m/s 758 mmHg 76%
    01:00 +18°C° 0 mm 1 m/s 757 mmHg 78%
    02:00 +18°C° 0 mm 1 m/s 757 mmHg 78%
    03:00 +18°C° 0 mm 1 m/s 756 mmHg 78%
    04:00 +18°C° 0 mm 1 m/s 756 mmHg 79%
    05:00 +19°C° 0 mm 2 m/s 756 mmHg 75%
    06:00 +21°C° 0 mm 2 m/s 756 mmHg 71%
    07:00 +22°C° 0 mm 3 m/s 756 mmHg 67%
    08:00 +26°C° 0 mm 4 m/s 755 mmHg 61%
    09:00 +28°C° 0 mm 4 m/s 755 mmHg 54%
    10:00 +32°C° 0 mm 5 m/s 755 mmHg 48%
    11:00 +33°C° 0 mm 5 m/s 754 mmHg 44%
    12:00 +34°C° 0 mm 5 m/s 753 mmHg 40%
    13:00 +35°C° 0 mm 5 m/s 753 mmHg 37%
    14:00 +34°C° 1.1 mm 4 m/s 752 mmHg 42%
    15:00 +33°C° 1.1 mm 4 m/s 751 mmHg 47%
    16:00 +31°C° 1.1 mm 3 m/s 750 mmHg 52%
    17:00 +28°C° 6.2 mm 3 m/s 750 mmHg 65%
    18:00 +26°C° 6.2 mm 4 m/s 750 mmHg 77%
    19:00 +22°C° 6.2 mm 4 m/s 750 mmHg 90%
    20:00 +22°C° 4.2 mm 3 m/s 750 mmHg 91%
    21:00 +22°C° 4.2 mm 3 m/s 750 mmHg 92%
    22:00 +21°C° 4.2 mm 2 m/s 750 mmHg 94%
    23:00 +21°C° 0.8 mm 2 m/s 750 mmHg 93%

    13 Decembrie, Joi

    Timp Temperatura Precipitaţii Vânt Presiune Umiditate
    00:00 +21°C° 0.8 mm 2 m/s 749 mmHg 93%
    01:00 +21°C° 0.8 mm 3 m/s 749 mmHg 93%
    02:00 +21°C° 0.2 mm 3 m/s 749 mmHg 92%
    03:00 +20°C° 0.2 mm 3 m/s 748 mmHg 92%
    04:00 +20°C° 0.2 mm 3 m/s 748 mmHg 92%
    05:00 +21°C° 0.9 mm 3 m/s 748 mmHg 90%
    06:00 +21°C° 0.9 mm 3 m/s 748 mmHg 89%
    07:00 +22°C° 0.9 mm 4 m/s 748 mmHg 87%
    08:00 +21°C° 2.1 mm 4 m/s 748 mmHg 89%
    09:00 +20°C° 2.1 mm 3 m/s 748 mmHg 91%
    10:00 +19°C° 2.1 mm 3 m/s 748 mmHg 93%
    11:00 +18°C° 7.1 mm 3 m/s 748 mmHg 94%
    12:00 +18°C° 7.1 mm 3 m/s 748 mmHg 94%
    13:00 +17°C° 7.1 mm 3 m/s 747 mmHg 95%
    14:00 +17°C° 2.8 mm 3 m/s 747 mmHg 94%
    15:00 +17°C° 2.8 mm 4 m/s 747 mmHg 94%
    16:00 +17°C° 2.8 mm 4 m/s 747 mmHg 94%
    17:00 +17°C° 1.2 mm 4 m/s 746 mmHg 94%
    18:00 +17°C° 1.2 mm 4 m/s 746 mmHg 95%
    19:00 +17°C° 1.2 mm 4 m/s 746 mmHg 96%
    20:00 +17°C° 0.2 mm 4 m/s 746 mmHg 96%
    21:00 +17°C° 0.2 mm 4 m/s 746 mmHg 96%
    22:00 +17°C° 0.2 mm 4 m/s 746 mmHg 96%
    23:00 +17°C° 0.3 mm 4 m/s 745 mmHg 97%

    14 Decembrie, Vineri

    Timp Temperatura Precipitaţii Vânt Presiune Umiditate
    00:00 +17°C° 0.3 mm 3 m/s 744 mmHg 97%
    01:00 +18°C° 0.3 mm 3 m/s 744 mmHg 98%
    02:00 +18°C° 0.8 mm 3 m/s 744 mmHg 98%
    03:00 +18°C° 0.8 mm 3 m/s 744 mmHg 98%
    04:00 +18°C° 0.8 mm 3 m/s 744 mmHg 98%
    05:00 +18°C° 0.6 mm 3 m/s 745 mmHg 97%
    06:00 +19°C° 0.6 mm 3 m/s 745 mmHg 97%
    07:00 +19°C° 0.6 mm 4 m/s 746 mmHg 96%
    08:00 +19°C° 2 mm 3 m/s 747 mmHg 96%
    09:00 +19°C° 2 mm 3 m/s 748 mmHg 95%
    10:00 +19°C° 2 mm 3 m/s 748 mmHg 95%
    11:00 +19°C° 1.6 mm 3 m/s 749 mmHg 87%
    12:00 +20°C° 1.6 mm 3 m/s 749 mmHg 80%
    13:00 +21°C° 1.6 mm 3 m/s 749 mmHg 73%
    14:00 +20°C° 1.1 mm 2 m/s 749 mmHg 77%
    15:00 +19°C° 1.1 mm 2 m/s 749 mmHg 82%
    16:00 +19°C° 1.1 mm 1 m/s 749 mmHg 86%
    17:00 +19°C° 0.5 mm 1 m/s 749 mmHg 86%
    18:00 +19°C° 0.5 mm 1 m/s 750 mmHg 86%
    19:00 +19°C° 0.5 mm 1 m/s 751 mmHg 85%
    20:00 +18°C° 0 mm 1 m/s 751 mmHg 88%
    21:00 +16°C° 0 mm 1 m/s 752 mmHg 90%
    22:00 +14°C° 0 mm 0 m/s 752 mmHg 93%
    23:00 +15°C° 0 mm 1 m/s 752 mmHg 93%

    15 Decembrie, Sâmbătă

    Timp Temperatura Precipitaţii Vânt Presiune Umiditate
    00:00 +15°C° 0 mm 1 m/s 751 mmHg 94%
    01:00 +15°C° 0 mm 1 m/s 751 mmHg 94%
    02:00 +15°C° 0 mm 1 m/s 751 mmHg 94%
    03:00 +15°C° 0 mm 1 m/s 751 mmHg 94%
    04:00 +15°C° 0 mm 1 m/s 750 mmHg 93%
    05:00 +16°C° 0 mm 1 m/s 751 mmHg 91%
    06:00 +18°C° 0 mm 1 m/s 751 mmHg 88%
    07:00 +19°C° 0 mm 1 m/s 751 mmHg 86%
    08:00 +21°C° 0 mm 1 m/s 750 mmHg 78%
    09:00 +21°C° 0 mm 2 m/s 750 mmHg 70%
    10:00 +24°C° 0 mm 2 m/s 750 mmHg 62%
    11:00 +25°C° 0 mm 2 m/s 750 mmHg 55%
    12:00 +26°C° 0 mm 3 m/s 749 mmHg 48%
    13:00 +27°C° 0 mm 3 m/s 749 mmHg 40%
    14:00 +27°C° 0 mm 3 m/s 749 mmHg 42%
    15:00 +27°C° 0 mm 3 m/s 748 mmHg 44%
    16:00 +27°C° 0 mm 3 m/s 748 mmHg 46%
    17:00 +25°C° 0 mm 3 m/s 749 mmHg 54%
    18:00 +24°C° 0 mm 2 m/s 749 mmHg 61%
    19:00 +21°C° 0 mm 2 m/s 749 mmHg 68%
    20:00 +20°C° 0.1 mm 2 m/s 749 mmHg 73%
    21:00 +20°C° 0.1 mm 1 m/s 750 mmHg 77%
    22:00 +19°C° 0.1 mm 1 m/s 750 mmHg 81%
    23:00 +18°C° 0 mm 1 m/s 749 mmHg 82%
    Arată mai mult